Regional Weather Roundup
Issued by NWS

Home | Current Version | Previous Version | Graphics & Text | Print | Product List | Glossary On
Versions: 1 2 3 4 5 6 7 8 9 10 11 12 13 14 15 16 17 18 19 20 21 22 23 24 25 26 27 28 29 30 31 32 33 34 35 36 37 38 39 40 41 42 43 44 45 46
000
ASUS45 KBOU 251907
RWRCO

WEATHER ROUNDUP FOR COLORADO
NATIONAL WEATHER SERVICE DENVER/BOULDER CO
1200 PM MST THU DEC 25 2014

NOTE: "FAIR" INDICATES FEW OR NO CLOUDS BELOW 12000 FEET WITH NO
SIGNIFICANT WEATHER AND/OR OBSTRUCTIONS TO VISIBILITY.

COZ001>005-013-030-031-252000-
...NORTHWEST COLORADO...

CITY           SKY/WX    TMP DP  RH WIND       PRES   REMARKS
CRAIG          LGT SNOW  31  29  92 E3        29.49S VSB 3/4
HAYDEN         CLOUDY    28  25  86 NE3       29.47F
MEEKER         CLOUDY    34  26  72 CALM      29.48F
MOUNT WERNER   NOT AVBL
STEAMBOAT SPGS CLOUDY    27  23  84 CALM      29.48S
WALDEN         CLOUDY    30  19  64 S6        29.46F WCI  24
$$

COZ006>008-011-252000-
...WEST CENTRAL VALLEYS...

CITY           SKY/WX    TMP DP  RH WIND       PRES   REMARKS
GRAND JUNCTION FLURRIES  31  29  92 NW9       29.51F WCI  23
MONTROSE       CLOUDY    43  23  45 N15       29.53F
EAGLE          CLOUDY    27  21  80 CALM      29.52F
RIFLE          LGT SNOW  28  25  88 NE3       29.53S VSB 1
DELTA          CLOUDY    41  27  57 SW8       29.56S
NUCLA          PTSUNNY   37  25  60 SW25      29.57F
$$

COZ017>023-064>068-252000-
...SOUTHWEST COLORADO...

CITY           SKY/WX    TMP DP  RH WIND       PRES   REMARKS
DURANGO        LGT SNOW  28  27  96 W6        29.63F VSB 3/4 WCI  22
CORTEZ         CLOUDY    37  20  50 S13       29.59F
PAGOSA SPRINGS LGT SNOW  31  19  61 W8        29.62F WCI  23
TELLURIDE      LGT SNOW  27  19  73 CALM      29.55F
WOLF CREEK PAS HVY SNOW  10   9  92 MISG      29.54F VSB 1/4
$$

COZ009-010-012-014-032>034-037-058>063-252000-
...CENTRAL COLORADO...

CITY           SKY/WX    TMP DP  RH WIND       PRES   REMARKS
ASPEN          CLOUDY    30  23  75 N7        29.47S WCI  23
BUENA VISTA    PTSUNNY   34  14  44 SE16      29.51F WCI  24
COPPER MTN     MOSUNNY   25  10  54 SE22G28   29.46F WCI  10
BERTHOUD PASS  LGT SNOW  12   9  85 MISG      29.50F VSB 3/4
COTTONWOOD PAS CLOUDY    32  14  47 E3        29.50F
GUNNISON       CLOUDY    14   1  57 CALM      29.58F
KREMMLING      CLOUDY    23  16  74 CALM      29.49F
LEADVILLE      PTSUNNY   26  10  50 S12G20    29.46F WCI  16
MONARCH PASS   LGT SNOW  18  12  79 MISG      29.60F
SALIDA         MOSUNNY   36  15  41 S16G23    29.58F
SUNLIGHT       SNOW     N/A N/A N/A MISG      29.50S VSB 1/2
WILKERSON PASS SUNNY     27  14  59 SW9       29.52F WCI  17
$$

COZ069>075-252000-
...SAN LUIS VALLEY/SANGRE DE CRISTO MOUNTAINS...

CITY           SKY/WX    TMP DP  RH WIND       PRES   REMARKS
ALAMOSA        SUNNY     37  16  42 SW31G37   29.58F
LA VETA PASS   NOT AVBL
SAGUACHE       SUNNY     23  10  58 N3        29.59F
$$

COZ035-036-038>040-252000-
...NORTHERN COLORADO FRONT RANGE...

CITY           SKY/WX    TMP DP  RH WIND       PRES   REMARKS
DENVER INTL AP PTSUNNY   40  28  62 NE18      29.48S
DMNS CITY PARK   N/A     43  26  51 NE10G21   29.49S
AURORA         PTSUNNY   39  25  56 NE17G23   29.49S
FRONT RANGE AP NOT AVBL
ERIE MUNI ARPT   N/A     41  25  53 N14       29.50F
BOULDER MUN AP CLOUDY    39  27  60 N8        29.50F
CENTENNIAL     PTSUNNY   38  19  46 N10       29.48S
BROOMFIELD     PTSUNNY   39  21  48 N12       29.50S
FORT COLLINS   CLOUDY    36  30  80 NE10      29.53F
LONGMONT       CLOUDY    41  31  67 N8        29.53S
$$

COZ041-046-047-076>085-087-088-252000-
...PIKES PEAK/PALMER DIVIDE AND SOUTHERN FOOTHILLS...

CITY           SKY/WX    TMP DP  RH WIND       PRES   REMARKS
COLO. SPRINGS  MOSUNNY   54  10  17 VRB7      29.41F
A. F. ACADEMY  SUNNY     50   9  19 VRB5G22   29.41F
ELLICOTT       NOT AVBL
FALCON         SUNNY     49  15  25 NE8       29.45F
FORT CARSON    SUNNY     52  14  22 SW30G40   29.38F
LIMON          SUNNY     48  20  32 NE10      29.43S
MONUMENT HILL  SUNNY     34  21  60 N14G21    29.46R WCI  24
TRINIDAD       SUNNY     45  22  40 SW18      29.50F
$$

COZ042>045-048>051-090-091-252000-
...NORTHEAST COLORADO...

CITY           SKY/WX    TMP DP  RH WIND       PRES   REMARKS
GREELEY ARPT   CLOUDY    36  28  75 N12       29.51S
AKRON          MOSUNNY   37  29  72 N18       29.47R
BURLINGTON     SUNNY     42  27  55 NE10      29.42F
WRAY           MOSUNNY   43  28  55 N10       29.47R
STERLING       CLOUDY    39  32  75 NE7       29.48S
HOLYOKE        MOSUNNY   43  30  61 N21       29.46F
FORT MORGAN    CLOUDY    36  30  77 N16       29.48S
$$

COZ086-089-092>099-252000-
...SOUTHEAST COLORADO...

CITY           SKY/WX    TMP DP  RH WIND       PRES   REMARKS
PUEBLO         SUNNY     56  17  21 W22       29.41F
LA JUNTA       SUNNY     57  21  24 W29G44    29.45F
LAMAR          SUNNY     60  22  23 W17G26    29.44F
SPRINGFIELD      N/A     60  20  21 SW18G28   29.48F
$$


USA.gov is the U.S. government's official web portal to all federal, state and local government web resources and services.